Home   Weather   Mount Temple   Past weeks
Flag for Canada

Past Weather in Mount Temple, British Columbia, Canada — Yesterday and Last 2 Weeks

Now
46 °F

Light rain. Fog.


Feels Like: 45 °F
Forecast: 49 / 42 °F
Wind: 3 mph from Northeast

Location: Prince Rupert

Current Time: Oct 20, 2019 at 8:38:30 pm

Latest Report: Oct 20, 2019 at 8:00 pm


Visibility: 4 mi

Pressure: 29.74 "Hg

Humidity: 100%

Dew Point: 46 °F

Location of Mount TempleLocation

Past Weather in Mount Temple — Graph

°F

Mount Temple Temperature Yesterday

Maximum temperature yesterday: 48 °F (at 1:23 pm)
Minimum temperature yesterday: 43 °F (at 12:16 am)
Average temperature yesterday: 45 °F

High & Low Weather Summary for the Past Weeks

 TemperatureHumidityPressure
High54 °F (Oct 6, 2:18 pm)100% (Oct 12, 1:39 am)30.47 "Hg (Oct 12, 1:39 am)
Low34 °F (Oct 9, 6:00 am)43% (Oct 8, 4:00 pm)29.05 "Hg (Oct 17, 5:00 am)
Average47 °F85%29.77 "Hg
* Reported Oct 5 7:00 pm — Oct 20 7:08 pm, Mount Temple. Weather by CustomWeather, © 2019

Note: Actual official high and low records may vary slightly from our data, if they occured in-between our weather recording intervals... More about our weather records

Advertising

Mount Temple Weather History for the Previous 24 Hours

Scroll right to see more
 ConditionsComfort  
Time TempWeatherWind HumidityBarometerVisibility
7:08 pm
Sun, Oct 20
46 °FLight rain. Mostly cloudy.No wind100%29.72 "Hg9 mi
7:02 pm46 °FLight rain. Mostly cloudy.No wind100%29.72 "Hg9 mi
6:36 pm46 °FLight rain. Fog.2 mph100%29.71 "Hg5 mi
6:00 pm48 °FLight rain. Mostly cloudy.No wind94%29.70 "Hg9 mi
5:46 pm48 °FLight rain. Overcast.No wind87%29.70 "Hg9 mi
5:00 pm48 °FOvercast.2 mph87%29.68 "Hg9 mi
4:00 pm48 °FOvercast.5 mph82%29.66 "Hg9 mi
3:00 pm50 °FCloudy.6 mph76%29.64 "Hg9 mi
2:00 pm50 °FOvercast.12 mph71%29.62 "Hg9 mi
1:00 pm50 °FOvercast.9 mph76%29.60 "Hg9 mi
12:00 pm48 °FOvercast.7 mph82%29.57 "Hg9 mi
11:19 am48 °FOvercast.6 mph82%29.57 "Hg9 mi
11:00 am46 °FLight rain. Overcast.5 mph82%29.56 "Hg9 mi
10:11 am45 °FLight rain. Fog.3 mph87%29.55 "Hg6 mi
9:00 am45 °FLight rain. Overcast.2 mph87%29.54 "Hg9 mi
8:00 am45 °FLight rain. Mostly cloudy.8 mph81%29.53 "Hg9 mi
7:00 am45 °FLight rain. Overcast.7 mph87%29.55 "Hg9 mi
6:00 am43 °FLight rain. Fog.6 mph93%29.58 "Hg6 mi
5:39 am43 °FLight rain. Mostly cloudy.7 mph100%29.59 "Hg7 mi
5:09 am43 °FRain. Fog.3 mph100%29.60 "Hg5 mi
4:00 am45 °FLight rain. Overcast.7 mph87%29.63 "Hg9 mi
3:00 am46 °FLight rain. Overcast.10 mph82%29.66 "Hg9 mi
2:18 am46 °FLight rain. Mostly cloudy.13 mph82%29.68 "Hg9 mi
2:00 am46 °FLight rain. Mostly cloudy.13 mph82%29.68 "Hg9 mi
1:00 am46 °FPassing clouds.13 mph82%29.71 "Hg9 mi
12:00 am46 °FOvercast.10 mph76%29.72 "Hg9 mi
11:00 pm
Sat, Oct 19
46 °FPassing clouds.10 mph82%29.72 "Hg9 mi
10:00 pm46 °FOvercast.12 mph82%29.74 "Hg9 mi
9:00 pm45 °FPassing clouds.12 mph87%29.74 "Hg9 mi
8:00 pm45 °FPassing clouds.9 mph87%29.75 "Hg9 mi
Weather by CustomWeather, © 2019

See weather overview